Wind_Speed
8 8 8 9 9 9 12 14 14 13 14 11 8 4 4 7 13 17 18 16 15 15 14 15 14 11 8 12 9 9 5 3 4 3 7 8 12 14 12 9 11 14 15
9 9 8 7 7 6 8 10 9 12 12 12 10 13 12 13 15 15 15 12 13 15 13 14 10 11 6 12 17 13 7 3 3 8 8 7 5 6 7 6 9 11 15
10 8 7 3 2 2 4 6 6 8 9 12 14 13 12 15 18 18 19 20 21 22 21 19 16 11 10 9 15 20 22 19 12 2 5 8 9 5 13 10 9 11 11
10 8 6 4 2 2 3 3 5 7 11 13 14 15 15 16 19 22 23 20 18 16 14 13 12 13 10 4 5 8 14 15 16 10 7 7 2 10 18 20 14 11 13
12 10 8 6 5 8 8 6 8 9 10 13 14 14 14 13 13 12 10 9 7 5 3 1 2 3 7 5 3 5 5 5 6 5 4 1 2 4 4 8 14 14 11
14 15 11 12 10 9 9 11 11 10 11 13 13 12 12 14 10 9 9 9 9 8 10 9 8 6 5 5 8 7 4 1 3 5 2 11 11 8 6 6 16 11 5
13 16 18 16 13 11 12 16 19 19 17 17 14 11 12 11 10 9 10 12 12 11 12 12 11 12 15 10 8 13 15 14 5 11 19 15 17 12 10 12 11 10 6
9 17 20 18 15 18 22 25 25 22 20 17 15 13 13 11 8 10 15 15 15 15 12 11 10 9 12 13 17 23 25 26 22 22 20 18 15 11 9 9 8 7 6
2 12 16 24 26 25 26 23 23 23 21 19 18 18 16 17 14 16 18 20 21 19 18 17 17 20 14 13 17 21 23 22 19 18 17 16 13 12 11 6 15 12 7
15 21 24 28 29 30 27 25 22 22 22 19 19 19 21 20 17 14 14 18 21 22 21 22 21 18 18 17 19 19 21 14 10 10 12 14 13 13 13 12 10 13 9
20 25 27 28 30 31 28 24 22 21 21 21 22 22 23 23 17 16 17 18 20 21 21 21 20 16 17 16 14 13 12 10 9 11 11 10 9 16 14 14 12 6 1
23 28 29 30 29 28 27 23 20 22 25 24 24 24 22 22 20 18 15 15 15 19 18 15 12 9 8 9 11 10 7 8 8 12 14 13 9 6 8 5 4 5 3
26 27 28 27 26 25 26 24 24 24 25 22 22 22 19 19 19 16 15 13 13 16 15 16 16 15 14 14 12 10 8 8 12 13 13 12 10 8 8 8 5 6 3
29 29 30 29 27 28 26 23 25 23 20 21 20 19 18 16 18 18 19 17 19 19 17 14 12 11 13 11 11 9 12 13 12 11 11 10 10 10 10 8 6 7 8
26 28 25 25 28 31 29 25 24 21 18 20 16 15 15 13 12 12 11 10 11 10 8 6 6 5 6 6 8 12 10 9 10 13 10 11 11 11 11 11 9 9 7
24 23 24 26 27 31 31 28 22 20 18 16 14 13 14 13 12 12 11 10 8 9 10 13 13 10 8 8 8 6 8 12 9 10 10 10 10 11 11 13 11 8 8
32 29 28 27 27 28 29 28 25 18 16 15 13 13 14 16 15 13 10 7 6 10 11 11 8 6 4 2 6 10 12 11 7 7 8 7 9 9 11 13 12 7 8
21 23 25 26 27 29 28 27 25 22 19 15 13 13 14 13 11 9 8 4 3 6 13 12 9 10 13 12 10 8 7 6 9 5 9 10 11 11 12 13 11 11 8
23 22 22 21 19 23 24 22 20 22 21 19 17 15 12 10 8 7 8 7 8 9 11 10 8 7 3 4 5 5 5 3 3 6 10 11 11 10 12 11 12 13 8
11 12 15 17 21 24 21 19 19 21 22 17 15 14 12 8 4 2 2 5 11 11 11 8 7 3 4 5 4 3 8 5 4 9 9 10 11 11 11 10 11 13 13
16 11 9 7 13 14 14 15 14 22 19 17 13 14 9 6 6 3 9 10 8 8 6 2 8 1 11 8 5 3 7 9 10 7 4 7 9 14 7 7 7 12 11
10 10 9 15 12 12 14 12 9 8 25 19 12 8 10 3 12 12 9 9 8 5 5 2 4 6 7 5 5 1 6 10 7 5 3 7 5 11 9 8 11 11 7
4 4 15 13 12 14 11 8 6 7 6 15 14 14 11 7 10 10 9 8 6 4 1 2 3 10 9 6 5 3 4 8 5 1 3 8 2 8 7 7 12 9 9
5 9 16 14 13 14 14 10 8 6 3 16 17 13 12 10 8 7 7 5 2 4 5 6 4 2 3 2 4 4 3 2 2 6 7 3 2 1 6 13 6 8 9
10 11 4 16 16 17 18 13 14 13 12 9 13 13 11 10 9 7 10 7 3 4 8 7 4 2 3 1 2 3 4 6 6 5 4 1 3 2 7 6 6 10 12
9 16 6 5 14 17 17 18 14 18 16 12 12 12 11 10 9 13 11 8 5 8 7 5 4 2 2 1 4 3 2 3 3 5 3 6 3 1 6 7 8 10 12
Wind_Direction
139 129 97 93 69 67 56 56 56 54 50 65 78 86 162 195 204 200 195 183 166 170 182 181 186 190 291 336 330 331 302 281 141 126 133 121 149 192 170 148 203 207 195
142 134 119 106 69 63 56 58 61 60 55 57 80 89 101 124 134 138 141 144 137 131 132 158 146 167 134 78 68 42 44 67 124 155 163 199 174 200 135 172 200 203 190
147 136 153 159 125 64 61 56 75 80 68 77 80 80 82 94 136 140 146 140 131 122 111 108 97 110 99 80 58 49 40 38 37 228 135 148 141 164 145 154 159 155 149
152 131 144 179 182 190 110 81 93 84 88 91 92 95 97 107 116 127 124 117 110 106 102 96 83 73 64 39 14 24 33 31 31 24 48 78 95 188 159 156 152 143 133
160 150 152 136 138 114 112 104 111 102 100 96 94 92 93 102 110 121 128 136 149 152 147 132 73 73 64 63 33 351 350 18 9 357 25 74 272 276 147 173 164 145 146
163 171 161 147 135 114 103 99 112 111 108 97 94 96 101 104 97 100 110 114 114 117 118 111 109 103 91 58 68 54 30 20 254 250 319 106 84 91 82 96 149 140 127
178 179 163 147 141 129 123 111 113 112 117 111 102 101 101 115 110 100 103 103 101 95 96 90 91 99 103 98 105 103 82 68 70 165 120 99 86 76 88 79 75 92 101
178 166 159 158 147 119 114 115 115 113 107 100 90 86 98 98 117 109 114 109 105 107 109 104 96 116 143 110 103 91 83 78 80 90 92 85 78 71 72 80 61 60 86
38 157 155 136 131 125 122 122 117 116 108 101 97 93 99 100 109 137 131 115 107 100 99 97 107 112 107 104 101 94 85 81 77 76 80 80 73 66 65 89 55 63 58
109 132 137 132 129 124 125 124 125 119 109 108 101 94 95 102 121 122 123 120 112 107 98 92 91 106 114 107 103 101 93 80 64 67 72 67 68 61 56 58 47 40 24
126 128 126 125 129 132 130 128 126 117 111 108 102 93 89 91 105 120 117 115 116 105 94 87 84 94 99 98 95 84 81 95 81 62 67 61 94 80 54 40 41 55 248
118 119 119 125 127 130 128 120 114 113 108 104 101 92 86 85 88 94 98 105 119 113 97 80 77 77 89 83 76 72 67 64 62 71 81 92 85 55 36 65 81 53 8
102 97 106 112 114 115 113 114 113 113 113 110 102 94 87 88 90 93 94 103 105 103 97 89 81 78 77 78 72 63 44 58 71 72 67 59 66 65 68 60 61 26 341
96 95 97 96 95 99 102 107 109 111 112 110 106 104 103 95 95 97 101 103 101 100 99 93 93 90 79 81 77 69 62 58 60 54 47 44 49 45 49 34 18 358 343
99 102 98 99 102 101 98 98 101 101 107 110 111 114 111 106 105 107 107 109 101 94 94 86 74 93 96 85 92 78 67 44 48 51 56 41 28 24 16 8 355 349 353
104 105 105 102 102 102 101 96 92 96 98 96 101 107 111 108 111 115 115 115 103 100 99 92 91 78 72 76 81 98 59 41 68 41 38 35 26 20 9 1 10 9 37
117 117 116 116 117 117 115 114 112 105 100 96 96 100 106 111 114 119 123 125 128 125 123 118 119 129 134 96 87 81 57 47 41 49 27 25 29 22 3 358 5 47 26
136 137 138 138 135 132 130 128 123 121 117 110 106 110 116 116 112 106 105 87 103 136 128 124 106 82 88 76 62 50 35 33 14 40 31 42 26 13 3 360 4 359 344
139 147 148 150 160 154 149 151 146 134 127 123 120 123 133 132 118 89 59 42 47 132 149 142 138 128 88 18 53 30 353 283 64 32 46 30 18 10 357 5 360 359 333
182 187 190 191 198 185 176 185 178 152 145 145 145 150 154 168 195 195 121 67 78 73 83 88 152 129 175 120 108 8 343 317 140 79 51 25 13 2 359 5 0 356 353
123 128 146 185 119 104 110 115 102 149 152 170 186 191 191 211 301 223 138 104 91 77 72 52 23 310 146 131 92 22 355 132 115 96 60 16 8 0 14 2 339 336 340
171 177 169 125 123 126 131 134 138 133 160 155 142 160 178 142 129 115 111 110 103 101 59 65 35 33 145 74 80 13 356 139 122 113 65 6 323 359 353 352 342 343 17
100 6 176 158 144 142 157 164 157 160 153 170 154 149 173 140 139 123 122 117 118 122 24 194 61 97 92 63 30 336 130 133 125 96 352 351 307 11 355 334 338 5 12
344 341 191 175 170 173 183 189 177 198 258 183 183 177 173 153 148 145 144 126 157 234 234 160 155 101 35 358 18 95 123 153 301 316 319 301 242 335 340 334 7 3 340
356 3 148 187 188 193 195 202 201 198 184 162 171 170 173 168 159 160 165 157 213 268 156 157 127 42 329 349 315 310 316 318 324 337 338 305 168 5 2 357 353 340 332
329 328 258 178 209 219 218 214 225 187 184 187 190 179 175 181 194 188 181 178 201 162 156 134 125 147 166 205 352 347 358 20 30 18 8 148 132 102 328 326 340 330 328
Height
782 782 783 784 784 783 782 781 779 778 777 777 776 777 778 780 783 786 790 794 798 802 805 808 810 814 817 817 816 815 813 812 813 816 818 817 817 818 821 825 829 831 832
782 781 783 785 785 785 785 784 784 782 782 781 780 780 780 781 784 788 791 795 798 803 805 808 810 814 816 818 817 817 817 812 810 814 816 817 819 819 822 827 828 829 830
781 781 783 785 785 786 787 787 787 786 786 785 785 785 786 787 787 790 794 797 800 803 805 806 809 810 813 815 815 814 811 812 812 815 815 817 820 823 824 827 829 831 830
780 782 783 785 786 787 788 789 789 790 790 790 790 790 791 793 795 796 798 800 802 805 806 808 809 810 811 813 813 813 814 816 816 818 819 820 822 825 825 827 830 831 832
779 781 783 785 786 787 789 789 791 792 793 794 795 795 796 798 799 801 802 803 804 805 806 807 809 811 813 815 814 814 816 817 819 822 821 822 824 826 827 828 829 830 833
775 780 783 785 786 788 790 791 793 795 797 798 799 799 800 801 803 804 804 806 807 809 810 811 812 813 814 815 816 816 817 817 818 820 821 822 824 826 827 827 827 828 833
774 777 781 784 786 789 792 793 794 796 798 800 801 802 803 804 806 807 808 809 810 811 812 814 815 816 818 819 819 819 818 817 816 816 821 825 826 828 828 828 829 831 833
775 778 780 782 786 790 792 795 797 799 800 802 804 805 805 807 808 809 809 811 812 814 815 817 818 818 820 821 821 820 820 821 823 822 825 827 828 829 830 830 831 832 835
773 776 779 781 784 788 793 798 800 800 802 804 806 807 807 809 810 811 811 813 816 818 820 820 820 821 823 823 822 824 825 827 829 829 829 829 830 831 831 831 831 833 835
774 775 779 780 785 789 795 799 801 802 804 807 809 810 810 810 813 814 815 815 817 820 822 824 824 824 825 826 826 826 827 831 832 831 831 832 832 831 832 832 834 836 839
777 778 781 783 787 791 795 800 803 804 806 809 811 814 814 814 816 817 818 819 821 824 826 827 828 828 828 829 830 831 831 831 832 832 832 833 833 832 832 833 834 836 839
781 782 784 787 791 795 797 802 807 808 810 815 816 817 819 820 820 821 823 824 825 825 829 832 833 833 832 833 834 835 836 833 833 833 834 834 834 835 835 836 836 834 837
787 788 790 791 797 800 801 806 810 812 814 818 819 821 825 824 824 826 827 830 830 830 833 835 836 837 837 837 838 837 838 837 837 838 838 838 837 837 835 836 837 837 836
792 796 798 800 802 805 808 813 813 816 820 820 823 825 827 830 829 831 832 835 835 835 836 838 839 841 841 841 841 842 841 841 840 839 839 839 840 838 837 837 838 838 837
798 802 805 809 811 811 814 818 819 822 824 824 827 828 829 832 834 835 836 838 838 839 839 840 842 843 843 844 844 844 844 844 842 841 841 841 842 840 839 838 838 838 837
804 808 811 813 816 817 820 823 827 827 828 829 829 830 831 833 835 837 838 839 840 841 842 843 844 845 845 845 846 845 845 844 844 844 843 843 842 842 841 840 838 837 836
809 812 815 817 820 822 825 826 828 832 832 833 833 834 835 835 837 839 840 841 842 843 844 844 845 845 846 846 846 846 846 845 845 845 845 844 843 843 841 840 839 838 837
813 815 817 820 822 824 826 827 829 830 832 835 837 838 839 840 841 841 841 842 843 844 844 844 846 847 847 847 847 847 847 847 846 846 845 844 844 843 842 841 839 838 837
815 818 820 822 824 825 826 828 830 832 834 836 838 840 841 841 841 842 842 843 843 844 844 845 846 846 847 847 847 847 847 847 847 846 846 845 844 844 843 841 840 839 838
816 817 819 820 822 825 828 830 832 834 836 837 839 840 842 843 843 843 844 845 845 845 846 847 846 846 846 847 847 847 846 845 846 846 846 846 846 844 843 842 841 840 838
817 818 820 822 824 825 827 829 830 831 834 837 838 839 840 841 842 842 844 844 845 846 846 847 847 845 846 847 847 847 846 846 845 846 846 846 846 845 843 842 841 840 838
817 818 820 822 823 825 827 828 829 830 833 835 836 837 839 841 842 842 843 844 845 846 847 847 847 847 847 846 846 846 846 846 846 845 846 846 845 845 844 842 841 840 838
817 818 819 820 821 824 826 828 829 830 832 833 834 836 838 840 841 841 843 844 845 846 847 847 847 847 847 847 846 845 845 845 845 845 845 844 844 844 843 842 841 839 837
816 817 817 817 820 822 824 826 827 828 829 831 832 834 836 838 839 840 842 843 845 845 845 845 845 846 846 845 846 845 845 845 844 843 842 842 842 842 842 841 840 838 837
816 815 815 816 817 819 821 822 823 826 827 828 831 832 833 834 836 838 839 841 843 843 843 843 844 844 845 845 844 844 844 843 842 841 841 840 841 841 841 840 839 837 835
815 816 815 815 816 817 817 818 819 822 824 825 826 828 830 831 833 834 836 838 840 841 841 841 842 842 843 844 843 842 842 841 841 840 839 840 840 840 840 839 837 836 834